Caslav, Czech Republic

5:47 AM CEST on July 26, 2017 (GMT +0200)
Caslav

Weather History for LKCV - November, 2012

Change the Weather History Date:

Wednesday, November 7, 2012

  Actual Average Record
Temperature  
Mean Temperature 42 °F -  
Max Temperature 46 °F - - ()
Min Temperature 37 °F - - ()
Degree Days  
Heating Degree Days 24    
Moisture  
Dew Point 40 °F    
Average Humidity 87    
Maximum Humidity 93    
Minimum Humidity 81    
Precipitation  
Precipitation 0.00 in - - ()
Sea Level Pressure  
Sea Level Pressure 30.11 in    
Wind  
Wind Speed 13 mph ()    
Max Wind Speed 21 mph    
Max Gust Speed -    
Visibility 6.2 miles    
Events Rain    
T = Trace of Precipitation, MM = Missing Value Source: Averaged Metar Reports

Daily Weather History Graph

Daily Weather History Graph

Search for Another Location

Airport or City:

Trip Planner

Search our weather history database for the weather conditions in past years. The results will help you decide how hot, cold, wet, or windy it might be!

Date:

Astronomy

Nov. 07, 2012 Rise Set
Actual Time 6:58 AM CET 4:25 PM CET
Civil Twilight 6:23 AM CET 4:59 PM CET
Nautical Twilight 5:45 AM CET 5:38 PM CET
Astronomical Twilight 5:07 AM CET 6:16 PM CET
Moon No Moon Rise 1:02 PM CET (11/7)
Length of Visible Light 10h 36m
Length of Day
9h 26m
Last Quarter, 46% of the Moon is Illuminated
Nov 7
Last Quarter
Nov 13
New
Nov 20
First Quarter
Nov 28
Full
Dec 6
Last Quarter

Hourly Weather History & Observations

Time (CET) Temp. Windchill Dew Point Humidity Pressure Visibility Wind Dir Wind Speed Gust Speed Precip Events Conditions
12:00 AM 37.4 °F 30.3 °F 35.6 °F 93% 30.06 in - SW 10.4 mph - N/A   Clear
1:00 AM 37.4 °F 31.4 °F 33.8 °F 87% 30.06 in - SW 8.1 mph - N/A   Clear
2:00 AM 39.2 °F 30.8 °F 35.6 °F 87% 30.04 in - SW 15.0 mph - N/A   Clear
3:00 AM 39.2 °F 30.2 °F 35.6 °F 87% 30.04 in - SW 17.3 mph - N/A   Clear
4:00 AM 41.0 °F 34.7 °F 35.6 °F 81% 30.04 in - SW 10.4 mph - N/A   Clear
5:00 AM 41.0 °F 33.5 °F 37.4 °F 87% 30.01 in 6.2 mi WSW 13.8 mph - N/A   Overcast
6:00 AM 41.0 °F 32.5 °F 35.6 °F 81% 30.01 in 6.2 mi WSW 17.3 mph - N/A   Overcast
7:00 AM 41.0 °F 32.8 °F 37.4 °F 87% 30.04 in 6.2 mi WSW 16.1 mph - N/A   Overcast
8:00 AM 41.0 °F 34.7 °F 37.4 °F 87% 30.04 in 6.2 mi WSW 10.4 mph - N/A   Overcast
9:00 AM 42.8 °F 35.1 °F 39.2 °F 87% 30.06 in 6.2 mi WSW 16.1 mph - N/A Rain Light Rain
10:00 AM 42.8 °F 34.5 °F 39.2 °F 87% 30.06 in 6.2 mi WSW 18.4 mph - N/A   Overcast
11:00 AM 44.6 °F 37.4 °F 41.0 °F 87% 30.09 in 6.2 mi WSW 16.1 mph - N/A   Overcast
12:00 PM 44.6 °F 36.4 °F 41.0 °F 87% 30.09 in 6.2 mi WSW 20.7 mph - N/A   Overcast
1:00 PM 44.6 °F 36.6 °F 41.0 °F 87% 30.09 in 6.2 mi WSW 19.6 mph - N/A   Overcast
2:00 PM 46.4 °F 39.2 °F 41.0 °F 81% 30.12 in 6.2 mi West 18.4 mph - N/A   Overcast
3:00 PM 46.4 °F 39.2 °F 42.8 °F 87% 30.12 in 6.2 mi WSW 18.4 mph - N/A   Overcast
4:00 PM 46.4 °F 39.2 °F 42.8 °F 87% 30.15 in 6.2 mi WSW 18.4 mph - N/A   Mostly Cloudy
5:00 PM 46.4 °F 39.8 °F 42.8 °F 87% 30.15 in 6.2 mi West 16.1 mph - N/A   Overcast
6:00 PM 46.4 °F 39.8 °F 42.8 °F 87% 30.18 in 6.2 mi WSW 16.1 mph - N/A   Mostly Cloudy
7:00 PM 46.4 °F 39.5 °F 42.8 °F 87% 30.21 in 6.2 mi West 17.3 mph - N/A   Mostly Cloudy
8:00 PM 46.4 °F 40.7 °F 42.8 °F 87% 30.21 in 6.2 mi WSW 12.7 mph - N/A   Mostly Cloudy
9:00 PM 46.4 °F 40.4 °F 42.8 °F 87% 30.21 in 6.2 mi WSW 13.8 mph - N/A   Overcast
10:00 PM 46.4 °F 39.5 °F 42.8 °F 87% 30.24 in 6.2 mi WSW 17.3 mph - N/A   Overcast
11:00 PM 46.4 °F 39.8 °F 42.8 °F 87% 30.21 in 6.2 mi West 16.1 mph - N/A   Overcast